Temp
70 69 68 68 69 69 69 70 70 70 71 70 70 70 70 71 71 70 70 70 68 68 68 65 63 62 59 56 55 54 51 50 49 54 57 65 63 61 63 59 62 58 55
69 70 69 69 69 68 68 69 70 70 70 70 70 70 71 72 72 71 68 68 65 65 60 58 56 56 55 54 52 51 51 51 50 48 53 49 59 51 50 54 53 56 57
70 69 69 68 68 68 67 67 69 69 69 70 70 69 70 70 70 70 67 62 60 61 61 58 56 55 53 53 52 51 52 52 50 49 50 50 47 44 43 47 47 51 57
71 70 68 68 68 68 68 68 68 68 68 69 69 70 69 70 71 70 66 63 65 65 62 56 56 55 53 53 52 51 50 49 49 45 42 38 39 40 41 41 41 45 49
71 70 69 69 69 69 68 67 68 68 68 69 70 70 70 70 69 68 64 61 58 57 56 54 55 53 47 48 51 50 48 43 39 39 36 35 36 35 36 39 38 42 43
71 70 71 70 70 69 68 68 68 69 70 70 70 69 67 62 49 46 50 56 53 51 51 43 42 41 38 37 37 35 38 38 35 35 34 34 33 33 34 35 36 36 35
70 71 70 70 69 69 69 68 67 65 65 63 61 58 48 43 39 43 41 46 43 40 39 39 37 37 37 36 34 34 34 34 32 36 34 33 33 34 36 36 36 36 36
70 70 70 69 68 69 68 66 60 53 50 47 44 42 39 38 37 38 38 38 36 35 35 35 34 33 34 34 34 32 32 32 33 34 34 34 35 38 38 37 36 36 39
61 62 63 63 58 53 49 49 47 43 40 38 38 38 36 35 36 36 37 34 32 31 33 33 32 31 32 34 32 31 31 32 33 33 33 32 32 32 32 35 34 34 34
50 49 50 49 47 45 43 40 40 38 36 36 34 35 35 35 35 36 36 34 31 31 31 31 31 31 31 31 31 31 30 32 33 33 33 32 31 35 31 33 33 29 30
47 46 45 44 42 41 39 38 37 34 33 32 31 32 33 34 34 34 35 33 32 31 30 29 30 29 30 30 30 32 31 32 31 33 34 33 32 33 33 33 32 29 28
44 42 41 41 41 40 38 37 36 34 32 31 31 30 31 32 32 32 32 32 32 31 30 31 31 29 30 31 32 29 28 29 32 31 30 29 30 30 30 30 29 29 30
42 41 40 40 39 40 38 36 35 35 32 31 30 29 28 30 30 31 31 30 30 32 33 30 29 29 30 30 29 27 27 32 30 28 28 28 29 29 29 28 29 29 28
41 41 41 39 38 38 37 35 34 34 32 32 30 29 30 32 33 34 34 34 33 34 32 33 31 30 29 30 30 31 31 30 28 27 28 29 29 28 27 28 26 27 27
41 40 39 37 35 32 32 33 32 31 33 33 32 32 31 28 28 29 30 30 31 31 32 33 32 31 30 31 31 30 30 29 27 26 25 25 25 25 25 26 25 25 23
39 39 38 38 37 35 32 29 30 30 30 30 30 31 29 28 29 29 28 27 28 29 30 27 26 26 26 26 25 24 26 24 23 23 22 22 21 20 21 22 23 21 20
35 35 37 36 36 34 33 31 26 27 27 27 27 27 26 25 25 25 26 27 26 28 25 24 23 22 22 23 23 22 20 21 21 21 19 19 18 18 17 18 18 19 18
34 33 35 34 34 33 32 31 31 28 25 24 23 24 23 23 22 22 23 26 25 24 24 22 20 20 20 20 20 18 18 18 17 17 16 16 16 15 15 15 16 15 15
32 31 31 31 31 31 31 30 29 28 26 26 26 24 23 22 21 20 21 21 20 20 20 20 20 19 18 18 17 16 15 15 14 14 14 14 14 14 14 14 14 13 14
29 28 29 29 29 28 28 27 26 25 24 22 20 19 22 23 20 19 19 17 17 18 17 17 17 17 16 16 15 14 14 14 14 13 13 13 13 13 12 13 13 13 14
27 26 25 27 25 25 25 24 23 22 22 21 17 14 13 19 18 17 17 15 15 15 15 15 15 15 15 14 14 13 12 12 12 12 12 12 12 11 13 13 13 14 14
26 25 24 23 23 22 21 22 21 20 19 18 18 16 13 17 16 16 15 14 14 14 15 14 13 14 14 12 12 11 10 10 11 11 11 10 11 12 12 12 12 13 13
23 22 21 20 19 18 19 19 18 17 16 16 16 15 15 14 13 13 12 12 12 12 13 11 11 10 12 11 11 11 9 10 10 10 9 9 10 11 11 11 11 11 12
21 20 18 17 17 17 16 15 14 12 14 14 14 13 12 12 12 11 10 10 9 10 10 9 9 8 8 8 10 11 11 11 10 9 9 9 9 10 11 11 11 11 11
18 16 16 15 15 14 14 14 13 13 13 12 12 11 11 11 11 10 9 8 7 7 7 7 8 8 7 6 6 7 8 7 7 7 8 9 9 9 9 10 11 11 12
16 15 14 14 14 13 13 12 11 11 10 10 10 10 9 9 9 8 7 7 5 5 6 7 7 7 6 8 9 8 5 4 5 5 6 8 8 9 11 10 10 11 11
MSLP
1008.11 1008.74 1009.32 1009.82 1010.49 1011.03 1011.24 1011.72 1012.26 1012.83 1013.26 1013.90 1014.22 1014.51 1014.72 1014.91 1015.21 1015.69 1015.95 1015.88 1015.97 1016.03 1016.10 1016.34 1016.48 1016.69 1016.86 1017.13 1017.01 1017.22 1017.30 1017.50 1017.15 1016.52 1015.96 1015.90 1016.15 1016.35 1016.77 1017.79 1017.97 1018.56 1018.89
1007.47 1007.81 1008.40 1009.10 1009.61 1010.10 1010.57 1011.10 1011.63 1011.99 1012.54 1013.00 1013.43 1013.68 1013.79 1014.01 1014.34 1014.45 1014.64 1014.77 1015.03 1014.99 1015.21 1015.65 1015.59 1015.80 1015.67 1015.35 1015.80 1016.33 1016.15 1016.23 1016.12 1015.84 1015.38 1015.98 1015.79 1016.08 1016.64 1016.96 1017.57 1017.65 1018.18
1006.79 1007.12 1007.64 1008.29 1008.82 1009.33 1009.99 1010.80 1011.14 1011.64 1012.13 1012.58 1012.90 1013.09 1013.12 1013.25 1013.36 1013.55 1013.93 1014.37 1014.44 1014.51 1014.33 1014.56 1014.56 1014.80 1014.71 1014.74 1014.45 1014.59 1014.75 1015.11 1015.10 1015.33 1014.99 1015.78 1016.30 1016.33 1016.55 1016.95 1017.44 1017.46 1017.45
1005.79 1006.21 1006.74 1007.34 1007.99 1008.68 1009.46 1010.09 1010.50 1011.07 1011.49 1011.82 1012.03 1012.18 1012.39 1012.48 1012.56 1012.79 1013.39 1013.66 1013.40 1013.26 1013.35 1013.62 1013.67 1013.61 1013.94 1014.00 1013.98 1013.89 1013.87 1014.01 1014.06 1014.38 1014.64 1015.95 1015.68 1016.65 1016.65 1016.94 1017.36 1017.40 1017.78
1004.73 1005.44 1005.94 1006.60 1007.23 1007.93 1008.61 1009.20 1009.79 1010.22 1010.60 1010.92 1011.05 1011.21 1011.38 1011.54 1011.80 1012.14 1012.41 1012.57 1012.64 1012.69 1012.87 1013.00 1013.12 1013.18 1013.16 1013.27 1013.45 1013.48 1013.79 1014.18 1014.57 1015.24 1015.89 1016.15 1016.40 1016.44 1016.76 1016.77 1017.74 1017.66 1017.76
1003.96 1004.75 1005.49 1006.08 1006.60 1007.17 1007.78 1008.38 1008.90 1009.25 1009.60 1009.89 1010.08 1010.37 1010.65 1011.32 1011.74 1011.89 1012.11 1012.29 1012.54 1012.75 1012.95 1013.51 1013.90 1014.09 1014.07 1013.79 1013.71 1013.95 1014.07 1014.46 1015.28 1015.81 1015.43 1016.26 1016.58 1016.75 1017.58 1017.58 1017.83 1018.02 1018.04
1003.57 1004.22 1004.96 1005.70 1006.27 1006.78 1007.30 1007.85 1008.37 1008.84 1009.34 1009.81 1010.35 1010.91 1011.94 1012.62 1012.50 1012.23 1012.49 1012.99 1013.52 1013.95 1014.25 1014.58 1015.00 1015.30 1015.33 1015.29 1015.37 1015.51 1015.64 1015.72 1015.78 1016.15 1016.53 1016.68 1017.06 1017.25 1017.70 1018.16 1018.31 1018.26 1017.97
1003.32 1004.10 1004.85 1005.60 1006.33 1006.94 1007.55 1008.17 1008.90 1009.89 1010.59 1011.35 1012.24 1012.85 1013.48 1013.98 1013.71 1013.51 1013.65 1014.31 1014.85 1015.40 1015.68 1016.01 1016.39 1016.60 1016.67 1016.60 1016.45 1016.62 1017.04 1017.15 1017.19 1017.35 1017.54 1017.54 1017.79 1017.99 1018.09 1018.25 1018.48 1018.35 1017.96
1004.16 1005.05 1005.76 1006.43 1007.35 1008.26 1009.12 1010.02 1010.86 1011.58 1012.53 1013.45 1014.02 1014.43 1014.77 1015.13 1015.00 1014.87 1014.81 1015.56 1016.22 1016.80 1017.04 1017.38 1017.59 1017.68 1017.67 1017.40 1017.31 1017.58 1017.67 1017.86 1018.06 1018.11 1018.22 1018.26 1018.28 1018.41 1018.62 1018.32 1018.06 1017.88 1017.11
1005.91 1006.68 1007.28 1007.97 1008.84 1009.76 1010.77 1011.64 1012.51 1013.16 1013.98 1014.74 1015.30 1015.79 1016.19 1016.25 1016.31 1016.08 1016.13 1016.68 1017.33 1017.76 1018.23 1018.54 1018.66 1018.68 1018.66 1018.53 1018.31 1018.15 1018.12 1018.15 1018.18 1018.33 1018.43 1018.42 1018.52 1018.28 1018.80 1018.71 1018.40 1017.99 1017.55
1007.09 1007.71 1008.59 1009.45 1010.31 1011.32 1012.19 1012.98 1013.64 1014.45 1015.24 1015.89 1016.33 1016.98 1017.08 1017.39 1017.46 1017.34 1017.50 1017.77 1018.16 1018.48 1018.86 1019.15 1019.33 1019.31 1019.23 1019.12 1018.95 1018.67 1018.61 1018.62 1018.64 1018.50 1018.48 1018.51 1018.49 1018.45 1018.49 1018.54 1018.46 1018.50 1018.09
1008.63 1009.01 1009.80 1010.57 1011.42 1012.27 1012.93 1013.91 1014.61 1015.19 1015.83 1016.80 1017.42 1018.07 1018.50 1018.74 1018.81 1018.88 1019.01 1019.07 1019.15 1019.18 1019.46 1019.64 1019.79 1019.85 1019.70 1019.45 1019.24 1019.33 1019.42 1019.31 1019.04 1018.92 1018.82 1018.63 1018.51 1018.54 1018.58 1018.71 1018.86 1018.77 1018.46
1009.11 1010.38 1011.02 1011.84 1012.46 1013.37 1013.95 1014.72 1015.53 1016.23 1016.89 1017.68 1018.09 1018.77 1019.51 1019.86 1020.03 1020.14 1020.24 1020.19 1020.16 1019.89 1020.07 1020.27 1020.15 1019.93 1019.72 1019.57 1019.74 1019.86 1019.80 1019.44 1019.31 1019.15 1018.95 1018.94 1019.03 1019.10 1019.25 1019.08 1018.83 1018.57 1018.23
1010.21 1011.83 1012.38 1013.10 1013.92 1014.92 1015.71 1016.19 1016.66 1017.50 1017.96 1018.54 1019.00 1019.50 1019.91 1020.09 1020.36 1020.57 1020.57 1020.51 1020.56 1020.35 1020.31 1020.23 1020.23 1020.00 1019.95 1020.01 1019.97 1019.95 1019.92 1019.93 1019.94 1019.63 1019.44 1019.48 1019.45 1019.27 1019.11 1018.89 1018.52 1017.94 1017.28
1011.93 1012.98 1013.97 1014.87 1015.32 1016.38 1017.33 1017.98 1018.49 1019.27 1019.14 1019.41 1019.94 1020.21 1020.55 1021.12 1021.80 1021.88 1021.70 1021.62 1021.42 1021.24 1020.74 1020.40 1020.18 1020.16 1020.08 1020.00 1020.07 1020.12 1020.20 1020.32 1020.28 1020.24 1020.18 1019.96 1019.69 1019.45 1019.16 1018.94 1018.58 1017.95 1017.16
1012.62 1014.24 1015.17 1015.80 1016.43 1017.62 1018.59 1019.71 1020.65 1020.91 1021.01 1021.25 1021.46 1021.57 1022.27 1022.64 1022.62 1022.50 1022.51 1022.59 1022.27 1021.77 1021.16 1021.24 1021.27 1021.30 1021.17 1021.15 1021.14 1021.16 1021.16 1021.22 1021.28 1021.31 1021.08 1020.79 1020.42 1020.09 1019.65 1019.26 1018.85 1018.13 1017.43
1013.32 1015.68 1016.26 1016.83 1017.34 1018.35 1019.16 1020.03 1021.23 1022.55 1022.71 1022.89 1023.04 1023.12 1023.38 1023.74 1023.84 1023.67 1023.31 1022.97 1023.02 1022.38 1022.31 1022.36 1022.43 1022.54 1022.46 1022.32 1022.30 1022.35 1022.36 1022.41 1022.42 1022.06 1021.83 1021.52 1021.17 1020.67 1020.27 1019.55 1018.95 1018.29 1017.69
1015.69 1016.64 1017.07 1017.98 1018.45 1019.24 1019.76 1020.40 1021.20 1021.92 1022.78 1023.66 1024.42 1024.44 1024.59 1024.74 1024.91 1024.76 1024.21 1023.34 1023.33 1023.56 1023.64 1023.49 1023.64 1023.70 1023.68 1023.54 1023.48 1023.44 1023.39 1023.32 1023.08 1022.76 1022.49 1022.09 1021.67 1021.11 1020.45 1019.73 1019.15 1018.66 1018.14
1017.07 1018.07 1018.82 1019.03 1019.62 1020.50 1020.80 1021.47 1022.13 1022.67 1023.33 1023.79 1024.22 1024.76 1025.25 1025.29 1025.36 1025.45 1025.34 1025.01 1024.93 1024.85 1024.84 1024.64 1024.66 1024.64 1024.61 1024.51 1024.39 1024.28 1024.03 1023.70 1023.59 1023.16 1022.77 1022.31 1021.89 1021.38 1020.61 1020.03 1019.50 1019.07 1018.50
1019.07 1019.66 1019.78 1020.15 1021.00 1021.58 1021.93 1022.48 1023.00 1023.60 1024.21 1024.88 1025.60 1026.01 1025.74 1025.55 1025.82 1026.09 1026.36 1026.46 1026.24 1026.01 1025.98 1025.73 1025.60 1025.54 1025.46 1025.23 1024.99 1024.69 1024.32 1023.95 1023.57 1023.28 1022.87 1022.51 1022.00 1021.53 1020.86 1020.23 1019.64 1018.91 1018.22
1020.37 1021.00 1021.35 1021.72 1022.22 1022.76 1023.37 1023.71 1024.19 1024.72 1025.24 1025.84 1026.85 1027.61 1027.56 1026.73 1026.83 1026.92 1026.98 1027.19 1027.01 1026.83 1026.77 1026.59 1026.34 1026.12 1025.87 1025.65 1025.39 1025.09 1024.79 1024.42 1023.97 1023.59 1023.16 1022.57 1022.17 1021.60 1020.90 1020.22 1019.53 1018.91 1018.34
1021.66 1022.24 1022.71 1023.13 1023.76 1024.34 1024.69 1025.10 1025.60 1025.97 1026.31 1026.75 1027.24 1027.96 1028.16 1027.75 1027.64 1027.65 1027.66 1027.78 1027.81 1027.64 1027.44 1027.24 1026.95 1026.59 1026.41 1026.26 1026.00 1025.60 1025.16 1024.67 1024.21 1023.78 1023.36 1022.89 1022.24 1021.53 1020.86 1020.21 1019.59 1018.91 1018.24
1022.96 1023.57 1024.29 1024.85 1025.37 1025.70 1025.92 1026.32 1026.65 1027.01 1027.48 1027.87 1028.04 1028.18 1028.29 1028.44 1028.45 1028.37 1028.37 1028.39 1028.27 1028.12 1027.87 1027.80 1027.47 1027.19 1026.85 1026.66 1026.50 1025.98 1025.39 1024.83 1024.44 1024.14 1023.65 1022.96 1022.23 1021.56 1020.97 1020.28 1019.51 1018.82 1018.11
1024.55 1025.17 1025.49 1025.94 1026.37 1026.66 1027.05 1027.51 1028.26 1028.64 1028.52 1028.57 1028.69 1028.79 1028.97 1029.12 1029.01 1028.94 1028.94 1028.96 1028.86 1028.52 1028.35 1028.12 1027.89 1027.52 1027.21 1027.07 1026.48 1025.94 1025.43 1025.02 1024.75 1024.27 1023.66 1022.90 1022.22 1021.49 1020.78 1020.12 1019.45 1018.71 1018.03
1025.99 1026.36 1026.74 1027.10 1027.48 1027.88 1028.29 1028.55 1028.74 1028.96 1029.13 1029.25 1029.37 1029.48 1029.64 1029.66 1029.46 1029.36 1029.33 1029.30 1029.23 1029.00 1028.68 1028.29 1027.74 1027.40 1027.08 1026.91 1026.53 1025.96 1025.36 1025.09 1024.76 1024.31 1023.67 1022.70 1021.86 1021.23 1020.56 1019.81 1019.14 1018.38 1017.70
1027.06 1027.52 1027.87 1028.13 1028.49 1028.77 1028.96 1029.18 1029.48 1029.68 1029.81 1030.01 1030.13 1030.21 1030.17 1029.98 1029.81 1029.75 1029.61 1029.45 1029.40 1029.15 1028.48 1027.93 1027.57 1027.28 1026.96 1026.19 1025.51 1025.18 1025.06 1024.73 1024.27 1023.84 1023.35 1022.39 1021.45 1020.65 1019.96 1019.32 1018.74 1018.12 1017.41
Wind_Speed
19 19 18 18 19 18 17 17 16 15 16 16 16 17 18 18 18 17 18 17 17 17 16 15 16 15 11 10 9 10 10 10 13 11 9 13 16 16 15 15 14 12 8
18 18 19 18 18 19 18 19 17 18 17 17 17 19 19 19 19 18 16 15 17 17 14 15 16 11 17 16 11 14 13 14 12 16 10 5 14 6 7 12 10 10 11
18 18 19 19 19 19 18 17 17 16 16 17 17 18 17 17 17 17 15 15 14 17 17 15 15 15 15 12 13 12 12 12 12 10 9 6 5 2 4 4 3 7 8
19 19 19 19 18 17 16 17 16 16 16 17 17 18 17 17 17 17 17 19 20 17 16 13 15 14 15 15 12 15 14 12 12 11 6 2 2 1 1 4 5 5 8
19 18 17 16 15 15 16 15 16 16 16 17 16 17 17 15 11 16 14 13 14 13 11 11 10 10 9 9 8 9 7 3 2 4 2 2 2 3 3 3 3 5 6
16 15 14 14 14 14 14 14 15 16 16 15 15 14 13 7 8 11 11 7 6 5 5 4 6 8 10 11 14 15 6 5 4 3 2 2 3 3 2 3 2 3 4
13 13 12 12 12 12 13 13 13 11 9 9 6 3 7 9 13 6 1 4 7 7 7 6 7 8 10 10 15 17 18 18 10 4 3 3 2 3 2 2 4 5 7
12 10 10 9 9 9 9 7 1 7 9 8 10 11 10 10 15 15 17 11 11 12 12 11 11 12 12 9 9 11 10 10 9 6 6 5 4 2 1 3 6 9 11
10 8 6 6 7 9 10 9 9 10 12 11 11 12 12 12 18 15 14 12 13 13 13 12 11 11 14 14 9 7 7 6 7 9 9 8 5 4 4 4 7 9 10
12 11 12 12 12 13 12 12 11 12 13 10 13 13 16 13 19 18 14 8 11 8 9 10 16 11 12 12 6 4 3 3 2 2 2 2 4 5 1 6 6 8 8
15 16 16 15 15 14 14 12 12 13 13 13 14 12 15 14 17 22 19 9 7 7 7 6 6 10 9 6 5 3 4 3 0 4 3 3 4 4 4 5 5 5 8
17 17 17 16 12 12 15 13 13 12 13 12 11 11 10 12 19 21 21 17 12 7 6 4 5 7 8 7 3 7 5 3 3 3 4 4 4 4 4 4 7 8 9
19 19 18 17 15 14 13 12 10 11 9 9 8 8 8 7 7 16 17 16 14 8 6 6 6 7 7 2 6 5 3 3 4 5 5 5 5 5 7 7 8 10 11
21 18 17 17 17 15 12 10 10 9 8 8 8 7 6 7 8 8 7 7 9 7 4 4 4 4 3 4 2 1 4 5 6 7 6 6 6 6 7 7 9 9 10
19 17 17 14 17 16 15 12 12 14 12 8 9 8 8 10 10 13 12 8 8 8 7 6 7 7 7 6 6 6 5 6 7 6 7 8 9 9 9 9 10 11 12
17 12 11 12 13 13 14 15 28 25 27 27 24 14 12 17 16 16 15 17 16 13 7 8 8 8 8 9 8 8 8 9 8 9 10 9 10 10 11 11 11 11 11
19 13 11 11 10 10 10 11 12 17 26 24 23 22 22 19 19 17 14 10 15 12 7 7 7 8 8 9 9 9 9 10 12 10 10 10 10 10 12 11 11 10 10
17 16 12 11 10 10 9 9 8 8 8 8 17 17 18 18 19 18 16 10 8 9 7 7 7 7 7 8 8 9 9 9 9 9 10 10 10 10 11 11 10 10 10
14 12 11 11 11 10 10 9 8 8 8 7 6 9 10 12 14 16 16 8 7 7 7 7 7 7 8 8 8 8 9 9 9 9 9 9 9 10 10 10 10 13 13
15 17 14 11 10 9 9 8 8 8 8 7 7 8 7 6 7 7 7 7 6 6 7 7 7 7 8 8 8 8 9 9 9 9 10 9 9 9 10 11 10 10 10
11 12 14 11 10 9 9 9 8 7 6 7 7 8 9 6 6 6 6 6 6 7 7 7 7 7 8 8 8 9 9 9 9 9 9 9 9 9 9 9 10 10 11
10 10 10 10 9 9 9 8 8 7 7 6 5 6 5 5 6 6 6 6 6 7 7 7 7 8 8 8 9 9 9 10 9 9 9 9 9 9 9 10 10 10 10
11 11 11 10 9 10 9 8 7 7 6 5 5 5 5 6 5 6 7 6 7 7 7 7 7 8 8 8 8 8 9 9 9 9 10 10 10 10 10 10 11 11 11
11 10 10 9 8 8 8 7 7 7 5 5 5 5 5 5 6 6 6 7 7 7 7 7 7 9 9 9 8 8 8 8 9 10 13 11 11 12 11 11 11 12 11
10 10 9 9 8 7 7 6 6 6 5 5 5 5 5 5 5 6 6 6 6 7 8 8 6 9 10 12 12 13 12 14 13 14 11 13 14 15 13 11 11 11 12
10 9 8 7 7 6 6 5 5 5 5 5 4 4 4 5 5 6 6 7 7 8 9 7 9 11 14 12 12 13 15 16 14 15 11 11 11 11 10 11 14 11 13
Wind_Direction
198 199 203 203 208 212 214 214 214 215 215 219 225 227 230 232 235 238 242 245 246 250 250 248 248 247 240 232 222 226 225 215 237 246 215 223 214 215 211 207 215 216 209
202 201 203 206 207 210 215 218 218 222 225 228 228 230 231 233 235 238 241 240 244 250 248 243 248 246 238 228 218 229 227 221 217 239 226 224 215 215 188 199 205 210 222
204 202 203 205 208 210 213 218 219 222 226 226 229 233 237 238 240 241 239 239 241 247 249 244 244 246 245 236 222 222 224 225 222 227 240 202 196 174 154 186 216 236 232
203 202 203 204 207 208 210 214 214 219 224 228 231 234 237 240 241 243 238 242 252 256 251 242 245 240 236 236 232 227 230 222 216 216 182 188 150 110 69 178 202 212 245
205 208 209 206 206 208 211 212 218 220 223 227 230 234 239 244 249 253 255 251 247 248 249 247 248 258 265 254 254 245 240 221 140 187 201 131 171 120 174 127 246 256 257
204 207 209 207 209 209 213 214 220 222 226 230 235 243 251 244 285 244 246 256 257 259 266 51 36 27 51 72 87 75 87 143 148 159 159 139 105 106 150 167 194 243 260
197 200 203 208 211 210 212 215 221 223 229 235 247 297 52 26 349 354 5 60 60 50 51 55 55 42 49 66 61 62 57 56 55 66 86 78 110 120 134 243 251 258 263
181 184 186 192 203 208 211 218 71 54 59 64 58 57 59 36 41 69 76 72 68 60 58 63 63 52 40 41 55 60 50 45 42 44 52 58 50 44 284 274 266 263 265
117 123 121 120 95 79 76 72 70 73 68 64 62 62 61 50 48 55 75 74 71 64 61 61 63 58 52 58 68 68 70 79 79 72 60 52 49 32 348 290 246 249 261
92 88 83 82 82 79 77 75 77 79 79 74 69 62 62 62 56 63 72 75 78 74 65 59 52 53 45 34 45 44 51 95 89 104 176 202 227 219 233 266 278 270 273
91 87 81 78 79 79 81 79 83 83 82 76 73 63 61 56 57 60 62 66 70 71 65 56 50 41 35 21 344 4 21 0 132 287 297 295 269 256 277 271 267 283 278
84 81 80 80 81 82 84 81 80 85 85 82 80 70 56 53 57 59 60 60 57 66 59 49 58 23 5 349 322 74 53 329 318 309 294 284 286 292 292 319 305 288 282
86 80 78 75 71 70 75 79 79 77 79 77 75 73 66 57 56 57 60 54 44 53 44 35 10 342 321 283 84 67 303 337 324 308 309 315 320 328 316 300 301 297 290
88 85 81 80 80 71 66 59 64 65 73 77 78 80 82 64 47 37 39 42 41 34 40 38 359 324 33 25 222 212 352 350 339 317 324 327 315 306 301 295 292 293 287
89 88 87 82 81 76 63 59 66 53 51 70 62 56 71 66 54 51 41 33 18 12 333 359 9 4 355 353 344 342 347 347 336 343 332 325 320 317 314 315 308 305 297
91 84 88 94 90 89 87 77 65 70 69 66 63 74 71 60 51 46 49 41 23 12 25 14 9 3 359 353 354 350 347 351 355 340 328 326 322 318 316 315 304 299 302
92 101 95 90 94 100 101 102 99 78 68 65 68 65 62 55 45 37 30 34 36 11 25 14 4 2 351 348 346 343 340 340 334 327 324 321 318 315 312 306 303 302 301
89 87 90 89 91 90 89 88 89 88 83 80 60 54 53 50 43 34 22 17 22 28 13 7 2 355 346 344 340 338 331 331 324 328 319 315 313 311 309 305 309 313 309
88 86 89 87 83 86 87 85 83 80 74 67 62 58 50 46 43 39 26 28 16 19 9 5 5 358 350 342 341 331 328 324 323 314 315 312 317 309 307 309 308 304 300
83 86 87 86 87 82 79 83 82 78 73 62 46 30 8 30 32 33 36 23 14 14 3 356 355 349 340 333 330 327 321 322 321 318 317 313 310 310 307 306 301 303 304
86 83 85 83 80 78 78 77 75 75 73 72 71 38 11 16 27 25 22 18 8 0 354 344 339 336 332 330 328 328 323 320 319 319 313 314 317 306 303 303 303 307 304
86 83 81 81 83 82 81 79 77 73 68 66 63 87 17 28 18 12 10 7 351 344 339 337 330 331 330 330 324 320 316 316 315 317 317 314 308 308 305 307 306 304 303
87 88 87 87 89 93 83 77 77 76 74 64 48 38 23 18 7 1 354 347 341 337 339 330 325 321 321 323 319 310 309 311 315 315 309 305 306 306 309 303 302 305 305
90 92 91 86 82 85 84 87 94 72 55 48 37 25 17 0 352 350 342 344 335 334 331 327 316 315 322 312 309 311 303 310 313 304 301 301 301 300 302 304 302 301 300
90 89 88 89 89 91 95 80 70 56 50 38 25 12 359 347 342 348 346 339 336 326 321 313 314 316 309 313 299 296 297 305 299 300 293 288 292 295 291 292 296 297 299
91 91 91 89 85 80 73 69 60 46 34 20 6 353 345 347 345 339 338 329 334 319 312 315 309 311 309 303 301 314 311 304 299 298 292 286 285 287 289 294 298 300 300